Location: Appletree Creek
(38.7363°N, 122.6833°W)
Time: 09:34:10
(UTC+00:00)

ERBS - Pass Details

Date: 18 September 2020
Orbit: 413 x 419 km, 57.0° (Epoch: 22 October)

Event Time Altitude Azimuth Distance (km) Brightness Sun altitude
Exits shadow 13:12:01 13° 263° (W) 1,317 4.1 -9.2°
Maximum altitude 13:14:28 29° 320° (NW) 809 3.4 -8.8°
Drops below altitude 10° 13:17:27 10° 22° (NNE) 1,507 5.5 -8.2°
Sets 13:19:44 0° 34° (NE) 2,375 6.8 -7.8°
